Location: Newark
(0.5300°S, 127.4800°E)
Time: 13:25:47
(UTC+00:00)

Vanguard 3 - Pass Details

Date: 26 September 2019
Orbit: 508 x 3262 km, 33.3° (Epoch: 14 October)

Event Time Altitude Azimuth Distance (km) Brightness Sun altitude
Rises 06:38:51 0° 301° (WNW) 7,119 12.6 40.7°
Reaches altitude 10° 06:44:01 10° 299° (WNW) 5,911 12.4 39.4°
Maximum altitude 07:01:12 69° 219° (SW) 2,289 10.3 35.1°
Drops below altitude 10° 07:11:10 10° 136° (SE) 3,620 10.2 32.6°
Sets 07:13:35 0° 133° (SE) 4,310 10.5 32.0°
